MXY411 KLAX-KNYL

Flight info

Callsign MXY411
Flight time 0h 48m
Altitude 31000
Route PNDAH2 TCATE DCT IPL/N0316F170 V458 BZA DCT
Aircraft E75L/M-SDE3GILORVW/S

Departure

Time 2026-05-03 20:16
Airport Los Angeles International Airport (KLAX)

Arrival

Time 2026-05-03 21:05
Airport Yuma International Airport / Marine Corps Air Station Yuma (KNYL)
Time Latitude Longitude Altitude Speed Heading
2026-05-03 20:15 33.94069 -118.38023 120 ft 5 kts 129°
2026-05-03 20:15 33.94015 -118.37999 121 ft 9 kts 191°
2026-05-03 20:15 33.93984 -118.38049 123 ft 6 kts 261°
2026-05-03 20:15 33.93976 -118.38118 123 ft 11 kts 262°
2026-05-03 20:16 33.93962 -118.38252 123 ft 40 kts 263°
2026-05-03 20:16 33.93878 -118.39063 126 ft 152 kts 263°
2026-05-03 20:16 33.93716 -118.40415 1253 ft 168 kts 263°
2026-05-03 20:16 33.93639 -118.41862 2580 ft 184 kts 270°
2026-05-03 20:17 33.93399 -118.43219 4444 ft 162 kts 249°
2026-05-03 20:17 33.93151 -118.44711 5310 ft 217 kts 268°
2026-05-03 20:17 33.92756 -118.46765 5241 ft 261 kts 241°
2026-05-03 20:17 33.91619 -118.48438 5472 ft 264 kts 226°
2026-05-03 20:18 33.90377 -118.50034 6575 ft 263 kts 229°
2026-05-03 20:18 33.89180 -118.51725 7495 ft 267 kts 230°
2026-05-03 20:18 33.87992 -118.53427 8353 ft 271 kts 229°
2026-05-03 20:18 33.86470 -118.54766 9160 ft 276 kts 200°
2026-05-03 20:19 33.84562 -118.55107 9990 ft 280 kts 182°
2026-05-03 20:19 33.82565 -118.55039 10540 ft 295 kts 176°
2026-05-03 20:19 33.80476 -118.54805 11066 ft 309 kts 174°
2026-05-03 20:19 33.78321 -118.54366 11702 ft 316 kts 168°
2026-05-03 20:20 33.76154 -118.53800 12484 ft 320 kts 168°
2026-05-03 20:20 33.73966 -118.53215 13271 ft 324 kts 167°
2026-05-03 20:20 33.71914 -118.52108 14033 ft 329 kts 143°
2026-05-03 20:20 33.70271 -118.50173 14848 ft 333 kts 131°
2026-05-03 20:21 33.68827 -118.47975 15664 ft 337 kts 126°
2026-05-03 20:21 33.67484 -118.45645 16443 ft 341 kts 124°
2026-05-03 20:21 33.66177 -118.43242 17250 ft 345 kts 123°
2026-05-03 20:21 33.64927 -118.40806 18049 ft 350 kts 119°
2026-05-03 20:22 33.63776 -118.38207 18866 ft 354 kts 117°
2026-05-03 20:22 33.62630 -118.35570 19692 ft 359 kts 117°
2026-05-03 20:22 33.61474 -118.32896 20525 ft 363 kts 117°
2026-05-03 20:22 33.60305 -118.30190 21307 ft 368 kts 117°
2026-05-03 20:23 33.59120 -118.27446 22045 ft 372 kts 117°
2026-05-03 20:23 33.57922 -118.24672 22764 ft 377 kts 117°
2026-05-03 20:23 33.56708 -118.21866 23470 ft 381 kts 117°
2026-05-03 20:23 33.55471 -118.19027 24182 ft 385 kts 118°
2026-05-03 20:24 33.54230 -118.16165 24904 ft 389 kts 117°
2026-05-03 20:24 33.52986 -118.13264 25631 ft 394 kts 117°
2026-05-03 20:24 33.51723 -118.10324 26300 ft 399 kts 117°
2026-05-03 20:24 33.50447 -118.07359 26912 ft 403 kts 117°
2026-05-03 20:25 33.49154 -118.04359 27485 ft 406 kts 117°
2026-05-03 20:25 33.47745 -118.01465 28014 ft 410 kts 125°
2026-05-03 20:25 33.45972 -117.98762 28544 ft 413 kts 130°
2026-05-03 20:25 33.44053 -117.96189 29050 ft 417 kts 135°
2026-05-03 20:26 33.41912 -117.93822 29537 ft 420 kts 137°
2026-05-03 20:26 33.39732 -117.91473 29897 ft 426 kts 138°
2026-05-03 20:26 33.37487 -117.89089 30312 ft 431 kts 139°
2026-05-03 20:26 33.35246 -117.86716 30776 ft 424 kts 139°
2026-05-03 20:27 33.33066 -117.84408 30893 ft 422 kts 139°
2026-05-03 20:27 33.30830 -117.82042 30967 ft 435 kts 139°
2026-05-03 20:27 33.28566 -117.79646 30994 ft 435 kts 139°
2026-05-03 20:28 33.24026 -117.74848 31005 ft 436 kts 139°
2026-05-03 20:28 33.19485 -117.70054 31001 ft 436 kts 138°
2026-05-03 20:29 33.15694 -117.64447 31003 ft 436 kts 118°
2026-05-03 20:29 33.13550 -117.57686 31003 ft 436 kts 108°
2026-05-03 20:30 33.11552 -117.50842 31001 ft 436 kts 109°
2026-05-03 20:30 33.09547 -117.44054 31002 ft 436 kts 109°
2026-05-03 20:31 33.07529 -117.37236 31002 ft 436 kts 109°
2026-05-03 20:31 33.05503 -117.30408 31001 ft 436 kts 109°
2026-05-03 20:32 33.03475 -117.23579 31001 ft 437 kts 109°
2026-05-03 20:32 33.01444 -117.16763 31001 ft 437 kts 109°
2026-05-03 20:33 32.99408 -117.09939 31002 ft 438 kts 109°
2026-05-03 20:33 32.97365 -117.03110 31001 ft 437 kts 109°
2026-05-03 20:34 32.95315 -116.96276 31002 ft 439 kts 109°
2026-05-03 20:34 32.93257 -116.89426 31001 ft 438 kts 110°
2026-05-03 20:35 32.91193 -116.82574 31003 ft 442 kts 110°
2026-05-03 20:35 32.89123 -116.75718 31002 ft 438 kts 110°
2026-05-03 20:36 32.87063 -116.68908 31000 ft 441 kts 110°
2026-05-03 20:36 32.84974 -116.62020 31001 ft 443 kts 110°
2026-05-03 20:37 32.82874 -116.55116 31001 ft 443 kts 110°
2026-05-03 20:37 32.81169 -116.48079 31005 ft 445 kts 101°
2026-05-03 20:38 32.80391 -116.40771 31001 ft 447 kts 95°
2026-05-03 20:38 32.79948 -116.33436 30142 ft 443 kts 94°
2026-05-03 20:38 32.79736 -116.29776 29010 ft 442 kts 94°
2026-05-03 20:39 32.79525 -116.26155 28106 ft 435 kts 94°
2026-05-03 20:39 32.79317 -116.22607 27237 ft 427 kts 94°
2026-05-03 20:39 32.79112 -116.19117 26391 ft 419 kts 94°
2026-05-03 20:39 32.78909 -116.15698 26196 ft 414 kts 94°
2026-05-03 20:40 32.78706 -116.12275 26094 ft 415 kts 94°
2026-05-03 20:40 32.78501 -116.08855 26038 ft 414 kts 94°
2026-05-03 20:40 32.78295 -116.05431 26011 ft 414 kts 94°
2026-05-03 20:40 32.78092 -116.02058 26002 ft 414 kts 94°
2026-05-03 20:41 32.77886 -115.98652 25996 ft 414 kts 94°
2026-05-03 20:41 32.77678 -115.95248 26002 ft 413 kts 94°
2026-05-03 20:41 32.77469 -115.91840 26005 ft 413 kts 94°
2026-05-03 20:41 32.77259 -115.88428 26001 ft 413 kts 94°
2026-05-03 20:42 32.77049 -115.85024 25999 ft 413 kts 94°
2026-05-03 20:42 32.76837 -115.81616 26003 ft 413 kts 94°
2026-05-03 20:42 32.76626 -115.78216 26003 ft 413 kts 94°
2026-05-03 20:42 32.76413 -115.74812 26001 ft 413 kts 94°
2026-05-03 20:43 32.76199 -115.71429 25686 ft 409 kts 94°
2026-05-03 20:43 32.75987 -115.68066 24720 ft 406 kts 94°
2026-05-03 20:43 32.75777 -115.64740 23827 ft 401 kts 94°
2026-05-03 20:43 32.75569 -115.61465 22947 ft 395 kts 94°
2026-05-03 20:44 32.75362 -115.58231 22075 ft 390 kts 94°
2026-05-03 20:44 32.75159 -115.55041 21349 ft 382 kts 94°
2026-05-03 20:44 32.74978 -115.51872 21163 ft 385 kts 93°
2026-05-03 20:44 32.74961 -115.48706 21080 ft 383 kts 89°
2026-05-03 20:45 32.75015 -115.45549 21030 ft 382 kts 88°
2026-05-03 20:45 32.75089 -115.42390 21010 ft 382 kts 88°
2026-05-03 20:45 32.75166 -115.39234 20999 ft 382 kts 88°
2026-05-03 20:45 32.75241 -115.36081 20997 ft 382 kts 88°
2026-05-03 20:46 32.75315 -115.32963 21005 ft 382 kts 88°
2026-05-03 20:46 32.75390 -115.29797 21005 ft 382 kts 88°
2026-05-03 20:46 32.75464 -115.26634 20998 ft 382 kts 88°
2026-05-03 20:46 32.75536 -115.23484 20794 ft 379 kts 88°
2026-05-03 20:47 32.75607 -115.20362 19879 ft 377 kts 88°
2026-05-03 20:47 32.75677 -115.17267 19033 ft 372 kts 88°
2026-05-03 20:47 32.75744 -115.14212 18203 ft 367 kts 88°
2026-05-03 20:47 32.75810 -115.11189 17381 ft 363 kts 88°
2026-05-03 20:48 32.75874 -115.08214 16570 ft 358 kts 88°
2026-05-03 20:48 32.75937 -115.05275 15768 ft 354 kts 88°
2026-05-03 20:48 32.75998 -115.02407 14984 ft 350 kts 88°
2026-05-03 20:48 32.76057 -114.99533 14206 ft 346 kts 88°
2026-05-03 20:49 32.76116 -114.96695 13422 ft 342 kts 88°
2026-05-03 20:49 32.76174 -114.93878 13213 ft 343 kts 88°
2026-05-03 20:49 32.76231 -114.91051 13186 ft 341 kts 88°
2026-05-03 20:49 32.76286 -114.88238 13175 ft 340 kts 88°
2026-05-03 20:50 32.76342 -114.85436 12884 ft 337 kts 89°
2026-05-03 20:50 32.76397 -114.82656 12176 ft 333 kts 89°
2026-05-03 20:50 32.76447 -114.79999 12028 ft 312 kts 89°
2026-05-03 20:50 32.76495 -114.77497 11887 ft 294 kts 89°
2026-05-03 20:51 32.76540 -114.75132 11750 ft 279 kts 89°
2026-05-03 20:51 32.76582 -114.72882 11611 ft 266 kts 89°
2026-05-03 20:51 32.76622 -114.70765 11366 ft 251 kts 89°
2026-05-03 20:51 32.76660 -114.68677 10989 ft 251 kts 89°
2026-05-03 20:52 32.76696 -114.66613 10664 ft 249 kts 89°
2026-05-03 20:52 32.76735 -114.64563 10371 ft 247 kts 89°
2026-05-03 20:52 32.76821 -114.62530 10035 ft 246 kts 78°
2026-05-03 20:52 32.77605 -114.60760 9692 ft 245 kts 44°
2026-05-03 20:53 32.79032 -114.59699 9383 ft 241 kts 28°
2026-05-03 20:53 32.80230 -114.58330 9036 ft 242 kts 61°
2026-05-03 20:53 32.80601 -114.56409 8715 ft 241 kts 95°
2026-05-03 20:53 32.80015 -114.54573 8403 ft 240 kts 129°
2026-05-03 20:54 32.79189 -114.53720 8186 ft 239 kts 152°
2026-05-03 20:54 32.76012 -114.53779 7587 ft 234 kts 198°
2026-05-03 20:54 32.74496 -114.54399 7022 ft 227 kts 200°
2026-05-03 20:55 32.73013 -114.55075 6209 ft 227 kts 208°
2026-05-03 20:55 32.71704 -114.56916 5235 ft 225 kts 256°
2026-05-03 20:55 32.71756 -114.58731 4550 ft 222 kts 291°
2026-05-03 20:55 32.72704 -114.60133 3870 ft 221 kts 328°
2026-05-03 20:56 32.73669 -114.60553 3411 ft 220 kts 353°
2026-05-03 20:56 32.75174 -114.60252 3222 ft 215 kts 18°
2026-05-03 20:56 32.76491 -114.59692 3301 ft 192 kts 20°
2026-05-03 20:56 32.77648 -114.59208 3332 ft 161 kts 18°
2026-05-03 20:57 32.78637 -114.58843 3300 ft 139 kts 16°
2026-05-03 20:57 32.79518 -114.58568 3242 ft 124 kts 13°
2026-05-03 20:57 32.80344 -114.58485 3088 ft 118 kts 354°
2026-05-03 20:57 32.81130 -114.58459 2909 ft 114 kts 29°
2026-05-03 20:58 32.81496 -114.57636 2589 ft 121 kts 101°
2026-05-03 20:58 32.81042 -114.56892 2411 ft 115 kts 144°
2026-05-03 20:58 32.80362 -114.56244 2346 ft 138 kts 141°
2026-05-03 20:58 32.79847 -114.55315 3178 ft 125 kts 117°
2026-05-03 20:59 32.79536 -114.54418 3778 ft 117 kts 111°
2026-05-03 20:59 32.79255 -114.53407 3501 ft 142 kts 117°
2026-05-03 20:59 32.78486 -114.52740 3320 ft 142 kts 176°
2026-05-03 20:59 32.77506 -114.52826 3099 ft 142 kts 188°
2026-05-03 21:00 32.76522 -114.52865 2862 ft 141 kts 180°
2026-05-03 21:00 32.75862 -114.52760 2644 ft 142 kts 167°
2026-05-03 21:00 32.75068 -114.51643 2288 ft 144 kts 92°
2026-05-03 21:00 32.75331 -114.50526 2223 ft 138 kts 67°
2026-05-03 21:01 32.74881 -114.49704 1768 ft 137 kts 189°
2026-05-03 21:01 32.74196 -114.50425 1790 ft 136 kts 231°
2026-05-03 21:01 32.73556 -114.51251 1796 ft 136 kts 226°
2026-05-03 21:01 32.72908 -114.52071 1769 ft 136 kts 227°
2026-05-03 21:02 32.72266 -114.52875 1689 ft 134 kts 230°
2026-05-03 21:02 32.71700 -114.53750 1732 ft 135 kts 236°
2026-05-03 21:02 32.71156 -114.54656 1729 ft 136 kts 225°
2026-05-03 21:02 32.70388 -114.55350 1413 ft 143 kts 215°
2026-05-03 21:03 32.69643 -114.56110 1132 ft 139 kts 226°
2026-05-03 21:03 32.68969 -114.56907 918 ft 135 kts 224°
2026-05-03 21:03 32.68298 -114.57658 733 ft 132 kts 223°
2026-05-03 21:03 32.67637 -114.58421 536 ft 132 kts 225°
2026-05-03 21:04 32.66974 -114.59185 356 ft 132 kts 223°
2026-05-03 21:04 32.66310 -114.59935 248 ft 132 kts 224°
2026-05-03 21:04 32.65660 -114.60669 199 ft 120 kts 224°
2026-05-03 21:04 32.65054 -114.61361 193 ft 106 kts 223°
2026-05-03 21:05 32.64754 -114.61711 195 ft 40 kts 225°
2026-05-03 21:05 32.64590 -114.61921 195 ft 10 kts 256°
2026-05-03 21:05 32.64623 -114.61985 191 ft 9 kts 338°
2026-05-03 21:05 32.64698 -114.61992 191 ft 14 kts 356°
2026-05-03 21:06 32.64806 -114.62005 195 ft 18 kts 341°
2026-05-03 21:06 32.64900 -114.62059 200 ft 12 kts 358°
2026-05-03 21:06 32.64991 -114.62063 197 ft 14 kts 359°
2026-05-03 21:06 32.65106 -114.62069 204 ft 19 kts 356°
2026-05-03 21:07 32.65221 -114.62080 204 ft 0 kts 354°